This is the latest recevied weather packets stored in our database for station/object KD0MAC. If no packets are shown the sender has not sent any weather packets the latest 10 day(s).
| Time | Temp. | Humidity | Pressure | Rain* | Wind** | Luminosity | Snow |
|---|---|---|---|---|---|---|---|
| 1788133630 | 33.89° C | 41% | 1011.5 hPa | 0 mm | - | 113 W/m² | - |
| 1788133330 | 33.89° C | 41% | 1011.5 hPa | 0 mm | - | 97 W/m² | - |
| 1788133030 | 33.89° C | 42% | 1011.5 hPa | 0 mm | - | 116 W/m² | - |
| 1788132729 | 33.33° C | 43% | 1011.5 hPa | 0 mm | - | 115 W/m² | - |
| 1788132430 | 33.89° C | 44% | 1011.2 hPa | 0 mm | - | 105 W/m² | - |
| 1788132129 | 34.44° C | 41% | 1011.2 hPa | 0 mm | - | 147 W/m² | - |
| 1788131829 | 34.44° C | 42% | 1011.2 hPa | 0 mm | - | 183 W/m² | - |
| 1788131529 | 34.44° C | 41% | 1011.2 hPa | 0 mm | - | 182 W/m² | - |
| 1788131230 | 34.44° C | 42% | 1011.2 hPa | 0 mm | - | 192 W/m² | - |
| 1788130930 | 35° C | 42% | 1011.2 hPa | 0 mm | - | 217 W/m² | - |
| 1788130629 | 34.44° C | 42% | 1011.2 hPa | 0 mm | - | 213 W/m² | - |
| 1788130047 | 35° C | 42% | 1011.2 hPa | 0 mm | - | 262 W/m² | - |
| 1788129729 | 35° C | 42% | 1011.2 hPa | 0 mm | - | 276 W/m² | - |
| 1788129430 | 35° C | 40% | 1011.2 hPa | 0 mm | - | 287 W/m² | - |
| 1788129129 | 35° C | 40% | 1011.2 hPa | 0 mm | - | 300 W/m² | - |
| 1788128829 | 34.44° C | 42% | 1011.2 hPa | 0 mm | - | 285 W/m² | - |
| 1788128530 | 34.44° C | 41% | 1011.2 hPa | 0 mm | - | 303 W/m² | - |
| 1788128230 | 35° C | 39% | 1010.8 hPa | 0 mm | - | 305 W/m² | - |
| 1788127930 | 35° C | 39% | 1011.2 hPa | 0 mm | - | 327 W/m² | - |
| 1788127630 | 35° C | 37% | 1011.2 hPa | 0 mm | - | 351 W/m² | - |
| 1788127337 | 34.44° C | 40% | 1011.2 hPa | 0 mm | - | 345 W/m² | - |
| 1788127030 | 34.44° C | 43% | 1011.2 hPa | 0 mm | - | 356 W/m² | - |
| 1788126730 | 35° C | 41% | 1011.2 hPa | 0 mm | - | 367 W/m² | - |
| 1788126429 | 35° C | 42% | 1011.2 hPa | 0 mm | - | 377 W/m² | - |
| 1788126129 | 35° C | 41% | 1011.2 hPa | 0 mm | - | 385 W/m² | - |
* Rain latest hour (hover to see other rain measurements)
** Current wind speed in m/s (hover to see current wind gust speed)